TIME,DELAY(SENSOR),PRES,OXYGEN,RAWTEMP,T(OPTODE),TCPHASE,FLUOR,BETA(BETA700),BETA(BETA412),BETA(BETA440),CDOM,C(CSC),ED(ED412.40),ED(ED444.00),ED(ED489.70),ED(ED554.30),LU(LU411.80),LU(LU443.40),LU(LU489.60),LU(LU554.10),COMP,TILTX,TILTY,CHECK
1366948432,5808,831.2899780273438000,41.9519996643066400,654.4572143554688000,4.8102841377258300,54.6370315551757800,53,100,89,79,80,14789,2147751168,2147424530,2148011730,2147874221,2147639890,2147057974,2148261238,2147196690,3045,4,13,32152
1366952028,5809,882.4699707031250000,44.2192001342773440,661.6168212890625000,4.5747318267822270,54.3927803039550800,52,102,84,79,80,14791,2147755392,2147423469,2148008045,2147875465,2147640813,2147053257,2148261366,2147196699,3316,4,13,17403
1366955628,5809,886.0999755859375000,43.8679885864257800,662.5952758789062000,4.5424919128417970,54.4545707702636700,53,99,82,80,81,14785,2147754578,2147426368,2148009892,2147875593,2147638793,2147055570,2148260598,2147195748,615,4,13,25484
1366959228,5806,922.6799926757812000,44.8822097778320300,665.4650878906250000,4.4478859901428220,54.3410606384277340,53,100,87,80,79,14787,2147758482,2147423899,2148013202,2147876434,2147644269,2147059968,2148259145,2147200338,189,4,13,60945
1366962828,5806,924.7199707031250000,44.7645912170410160,665.3159179687500000,4.4528079032897950,54.3561706542968750,52,99,86,78,79,14782,2147757824,2147424512,2148007734,2147875876,2147640804,2147055341,2148259382,2147197366,3063,4,13,39077
1366966428,5809,934.6500244140625000,44.2336807250976560,664.9227294921875000,4.4657731056213380,54.4288291931152340,51,97,87,78,80,14783,2147754093,2147423753,2148009819,2147878738,2147639789,2147057993,2148259876,2147194633,3593,4,13,812
1366970028,5808,971.7800292968750000,44.7138900756835940,665.7545776367188000,4.4383392333984375,54.3674201965332000,52,99,84,79,81,14781,2147751122,2147422546,2148010596,2147874075,2147640219,2147059821,2148260251,2147196059,3343,4,13,29962
1366973628,5810,964.8099975585938000,44.5538482666015600,666.0986938476562000,4.4269871711730960,54.3927116394043000,52,100,86,80,80,14780,2147755584,2147427392,2148012059,2147873206,2147642048,2147053019,2148261156,2147193764,3321,4,13,47181
1366977228,5810,958.5599975585938000,45.2427291870117200,667.5155029296875000,4.3802361488342285,54.3094215393066400,53,98,85,80,80,14779,2147754898,2147424027,2148012123,2147875776,2147640960,2147055844,2148255323,2147195062,167,4,13,7859
1366980828,5812,959.0499877929688000,45.9621200561523440,669.4340209960938000,4.3168950080871580,54.2279815673828100,52,101,85,78,80,14778,2147753682,2147426532,2148010569,2147880027,2147639725,2147057206,2148262180,2147200128,51,4,13,62986
1366984428,5809,973.1199951171875000,48.2872505187988300,672.3939208984375000,4.2190861701965330,53.9373703002929700,52,98,85,79,80,14780,2147755044,2147425929,2148011008,2147876196,2147643126,2147055981,2148261165,2147197970,735,4,13,46099
1366988028,5810,975.1599731445312000,49.1105995178222660,673.8098144531250000,4.1722640991210940,53.8430404663085940,53,99,86,78,80,14772,2147754550,2147425828,2148012333,2147874889,2147642477,2147056054,2148261558,2147198747,157,4,13,34789
1366991628,5814,974.6199951171875000,49.6164894104003900,674.6796264648438000,4.1434879302978520,53.7802505493164060,52,97,84,79,80,14772,2147753060,2147422985,2148014409,2147876553,2147644763,2147054153,2148258834,2147196105,530,4,13,45615
1366995228,5807,982.5300292968750000,49.6856613159179700,674.7814941406250000,4.1401181221008300,53.7758483886718750,53,99,87,79,80,14745,2147755392,2147425261,2148011876,2147876086,2147644141,2147054217,2148258148,2147200429,177,4,13,39869
1366998828,5805,982.5999755859375000,48.9384384155273440,673.2534790039062000,4.1906619071960450,53.8620414733886700,52,97,86,79,80,14765,2147754971,2147427090,2148012781,2147875986,2147642898,2147056009,2148260013,2147197430,3489,4,13,46770
1367002428,5807,980.8499755859375000,49.4286499023437500,673.9882202148438000,4.1663651466369630,53.8010292053222660,52,100,93,79,80,14765,2147752685,2147426020,2148010788,2147875382,2147644178,2147052617,2148259584,2147194368,3083,4,13,23278
1367006028,5813,976.1900024414062000,49.1203689575195300,673.1691894531250000,4.1934490203857420,53.8349800109863300,52,98,84,79,81,14763,2147753673,2147424438,2148010861,2147870848,2147642669,2147055250,2148252096,2147196608,3299,4,13,39870
1367009628,5810,986.3499755859375000,49.1873703002929700,672.7968750000000000,4.2057628631591800,53.8160209655761700,53,99,86,78,81,14763,2147757659,2147423734,2148007981,2147874953,2147643044,2147053714,2148259565,2147197257,169,4,13,51749
1367013228,5810,999.6500244140625000,47.9394989013671900,670.9509887695312000,4.2667751312255860,53.9679908752441400,53,99,85,79,81,14761,2147754916,2147423012,2148008987,2147875757,2147643209,2147059318,2148259666,2147196397,30,4,13,41847
1367016828,5808,1001.1599731445312000,46.6917800903320300,669.4791870117188000,4.3154010772705080,54.1277809143066400,52,99,88,79,80,14757,2147756809,2147424539,2148010669,2147877229,2147645165,2147055451,2148254637,2147194916,393,4,13,57306
1367020428,5807,1001.9799804687500000,46.4909706115722660,669.8759155273438000,4.3022961616516110,54.1629486083984400,53,97,84,79,79,14760,2147756562,2147425700,2148008722,2147877988,2147643803,2147053083,2148256082,2147197211,197,4,13,60223
1367024028,5810,989.8200073242188000,46.2068595886230500,669.8909301757812000,4.3018021583557130,54.2032890319824200,52,99,86,78,80,14758,2147754331,2147425371,2148014052,2147877906,2147640585,2147062409,2148258468,2147195117,115,4,13,10829
1367027628,5808,991.1500244140625000,47.0234603881835940,671.0681152343750000,4.2629070281982420,54.1007804870605500,51,99,88,79,80,14752,2147752228,2147422217,2148009581,2147876233,2147640996,2147055305,2148262692,2147196900,212,4,13,47754
1367031228,5808,988.0000000000000000,47.9718399047851560,672.2717285156250000,4.2231268882751465,53.9793510437011700,53,98,83,79,81,14750,2147756690,2147426203,2148006125,2147877028,2147640950,2147051593,2148258349,2147197796,3560,4,13,20989
1367034828,5809,995.8300170898438000,48.2262191772460940,672.0272827148438000,4.2312030792236330,53.9395790100097660,52,100,86,77,80,14751,2147753508,2147426898,2148011730,2147879213,2147640694,2147060214,2148255588,2147201435,3441,4,13,45382
1367038428,5808,989.9699707031250000,47.6363410949707000,671.7709960937500000,4.2396769523620605,54.0195999145507800,52,98,86,80,80,14751,2147760164,2147422299,2148007396,2147876260,2147643474,2147057673,2148259620,2147197632,292,4,13,6781
1367042028,5805,990.7000122070312000,48.4001884460449200,672.2003784179688000,4.2254829406738280,53.9210395812988300,52,98,86,79,81,14749,2147757568,2147423881,2148010240,2147874880,2147642688,2147049801,2148252772,2147197266,111,4,13,33802
1367045628,5810,975.5700073242188000,48.6159896850585940,673.8126220703125000,4.1721730232238770,53.9130096435546900,53,99,83,78,80,14748,2147756169,2147423899,2148011218,2147875739,2147643538,2147052800,2148261366,2147196077,411,4,13,63771
1367049228,5807,981.0700073242188000,49.8247604370117200,675.2443847656250000,4.1247978210449220,53.7623214721679700,52,98,84,79,80,14751,2147756617,2147425005,2148012352,2147876882,2147643894,2147053202,2148265243,2147197568,502,4,13,21836
1367052828,5809,995.6699829101562000,48.9021301269531250,672.5656738281250000,4.2134041786193850,53.8522415161132800,52,101,88,78,81,14749,2147754605,2147423478,2148013851,2147875126,2147641435,2147056694,2148254144,2147194852,315,4,13,25176
1367056428,5807,996.4000244140625000,48.2347106933593750,671.7988891601562000,4.2387537956237790,53.9408683776855500,52,100,84,78,80,14746,2147755565,2147422765,2148012452,2147872749,2147643090,2147053933,2148259300,2147196032,3343,4,13,7773
1367060028,5807,994.7899780273438000,47.2365684509277340,671.4371948242188000,4.2507100105285645,54.0709800720214840,52,96,84,79,81,14746,2147753700,2147424749,2148010989,2147875721,2147641216,2147052909,2148259702,2147198454,135,4,13,5098
1367063628,5809,996.9699707031250000,46.9394111633300800,670.9840087890625000,4.2656860351562500,54.1112709045410160,52,99,85,80,80,14743,2147753837,2147424502,2148012306,2147877275,2147641380,2147055872,2148259282,2147199030,3158,4,13,18431
1367067228,5811,994.9299926757812000,47.3237190246582000,671.6699218750000000,4.2430210113525390,54.0650711059570300,53,97,84,78,81,14741,2147758436,2147427072,2148010011,2147875373,2147644534,2147056713,2148259428,2147198034,160,4,13,26771
1367070828,5809,987.5000000000000000,48.2336692810058600,672.6608276367188000,4.2102599143981930,53.9472808837890600,52,98,83,79,81,14742,2147756992,2147428342,2148010541,2147874377,2147642130,2147054299,2148259474,2147197074,3535,4,13,57441
1367074428,5809,991.5599975585938000,48.3685684204101560,673.4395141601562000,4.1845130920410160,53.9382514953613300,51,97,84,78,79,14744,2147754834,2147423122,2148011154,2147875949,2147641792,2147057764,2148260864,2147195090,3505,4,13,4105
1367078028,5808,982.9099731445312000,48.3068389892578100,673.7772216796875000,4.1733441352844240,53.9532814025878900,53,97,85,77,79,14737,2147758290,2147425581,2148009161,2147873252,2147643456,2147053120,2148257536,2147196077,135,4,13,9346
1367081628,5810,986.9000244140625000,48.4151687622070300,673.2863159179688000,4.1895771026611330,53.9328613281250000,52,98,84,79,80,14735,2147754450,2147424466,2148012379,2147875291,2147639789,2147062016,2148260818,2147194276,36,4,13,48110
1367085228,5810,989.5200195312500000,47.9318809509277340,673.7858276367188000,4.1730561256408690,54.0028800964355500,52,100,85,77,80,14732,2147755410,2147422381,2148009106,2147876004,2147643227,2147060297,2148258377,2147199936,228,4,13,11457
1367088828,5809,993.0399780273438000,48.5386886596679700,673.5186157226562000,4.1818938255310060,53.9173698425293000,52,101,89,79,80,14735,2147756269,2147423643,2148013540,2147876434,2147643209,2147057526,2148256393,2147196900,144,4,13,19041
1367092428,5808,992.4000244140625000,47.8710594177246100,673.1052856445312000,4.1955637931823730,54.0073013305664060,52,98,84,78,80,14733,2147751469,2147426002,2148009325,2147875904,2147642898,2147059090,2148258724,2147194450,312,4,13,56418
1367093456,5809,989.0599975585938000,48.1812095642089840,673.4190063476562000,4.1851878166198730,53.9650306701660160,52,101,85,77,81,14754,2147757814,2147427501,2148012096,2147876608,2147642002,2147056640,2148259446,2147196772,316,4,13,25179
